TimeMST,TemperatureF,Dew PointF,Humidity,Sea Level PressureIn,VisibilityMPH,Wind Direction,Wind SpeedMPH,Gust SpeedMPH,PrecipitationIn,Events,Conditions,WindDirDegrees,DateUTC
12:52 AM,-11.0,-14.1,86,30.70,0.2,Calm,Calm,-,N/A,Fog,Light Freezing Fog,0,2013-11-29 07:52:00
1:52 AM,-9.9,-13.0,86,30.69,0.2,Calm,Calm,-,N/A,Fog,Light Freezing Fog,0,2013-11-29 08:52:00
2:52 AM,-9.9,-13.0,86,30.71,0.5,SW,3.5,-,N/A,Fog,Light Freezing Fog,230,2013-11-29 09:52:00
3:52 AM,-9.0,-13.0,83,30.69,0.2,North,3.5,-,N/A,Fog,Light Freezing Fog,350,2013-11-29 10:52:00
4:52 AM,-8.0,-13.0,79,30.74,0.5,Calm,Calm,-,N/A,,Haze,0,2013-11-29 11:52:00
5:07 AM,-7.6,-13.0,77,30.35,2.5,Calm,Calm,-,N/A,,Haze,0,2013-11-29 12:07:00
5:14 AM,-7.6,-13.0,77,30.35,6.0,Calm,Calm,-,N/A,,Haze,0,2013-11-29 12:14:00
5:43 AM,-9.4,-14.8,77,30.35,1.8,South,4.6,-,N/A,,Overcast,190,2013-11-29 12:43:00
5:52 AM,-9.9,-14.1,82,30.76,1.5,Calm,Calm,-,N/A,,Overcast,0,2013-11-29 12:52:00
6:08 AM,-11.2,-14.8,84,30.36,0.5,SSW,3.5,-,N/A,Fog,Light Freezing Fog,200,2013-11-29 13:08:00
6:52 AM,-9.9,-13.0,86,30.79,0.2,Calm,Calm,-,N/A,Fog,Light Freezing Fog,0,2013-11-29 13:52:00
7:27 AM,-9.4,-14.8,77,30.38,2.5,Calm,Calm,-,N/A,,Haze,0,2013-11-29 14:27:00
7:52 AM,-9.0,-11.0,91,30.87,1.0,Calm,Calm,-,N/A,,Overcast,0,2013-11-29 14:52:00
8:10 AM,-7.6,-9.4,92,30.38,0.5,Calm,Calm,-,N/A,Fog,Light Freezing Fog,0,2013-11-29 15:10:00
8:52 AM,-4.0,-7.1,87,30.84,0.2,Calm,Calm,-,N/A,Fog,Light Freezing Fog,0,2013-11-29 15:52:00
9:15 AM,-0.4,-2.2,92,30.40,1.5,Calm,Calm,-,N/A,,Overcast,0,2013-11-29 16:15:00
9:25 AM,-0.4,-0.4,100,30.40,2.5,Calm,Calm,-,N/A,,Overcast,0,2013-11-29 16:25:00
9:32 AM,-0.4,-0.4,100,30.40,3.0,Calm,Calm,-,N/A,,Overcast,0,2013-11-29 16:32:00
9:45 AM,-0.4,-0.4,100,30.40,1.8,Calm,Calm,-,N/A,,Overcast,0,2013-11-29 16:45:00
9:52 AM,1.0,1.0,100,30.84,1.8,Calm,Calm,-,N/A,,Overcast,0,2013-11-29 16:52:00
9:57 AM,1.4,-0.4,92,30.40,3.0,Calm,Calm,-,N/A,,Overcast,0,2013-11-29 16:57:00
10:24 AM,1.4,-0.4,92,30.40,2.5,Calm,Calm,-,N/A,,Overcast,0,2013-11-29 17:24:00
10:37 AM,1.4,-0.4,92,30.40,4.0,South,4.6,-,N/A,,Mostly Cloudy,190,2013-11-29 17:37:00
10:52 AM,3.0,-0.9,84,30.83,6.0,SSE,4.6,-,N/A,,Mostly Cloudy,160,2013-11-29 17:52:00
11:15 AM,3.2,-0.4,85,30.38,7.0,Calm,Calm,-,N/A,,Scattered Clouds,0,2013-11-29 18:15:00
11:52 AM,7.0,1.9,80,30.79,9.0,ESE,3.5,-,N/A,,Clear,110,2013-11-29 18:52:00
12:52 PM,12.0,5.0,73,30.72,10.0,ENE,4.6,-,N/A,,Clear,70,2013-11-29 19:52:00
1:52 PM,17.1,8.1,68,30.67,9.0,NNW,4.6,-,N/A,,Clear,340,2013-11-29 20:52:00
2:52 PM,16.0,8.1,71,30.67,10.0,WNW,4.6,-,N/A,,Clear,300,2013-11-29 21:52:00
3:52 PM,14.0,7.0,74,30.68,10.0,North,4.6,-,N/A,,Clear,10,2013-11-29 22:52:00
4:52 PM,6.1,1.9,83,30.73,10.0,WNW,3.5,-,N/A,,Clear,290,2013-11-29 23:52:00
5:52 PM,-0.0,-2.9,88,30.79,10.0,Calm,Calm,-,N/A,,Clear,0,2013-11-30 00:52:00
6:52 PM,-4.0,-5.1,95,30.84,2.5,Calm,Calm,-,N/A,,Clear,0,2013-11-30 01:52:00
6:57 PM,-5.8,-7.6,92,30.37,0.8,SE,3.5,-,N/A,,Clear,140,2013-11-30 01:57:00
7:06 PM,-5.8,-7.6,92,30.37,0.2,SSE,3.5,-,N/A,Fog,Light Freezing Fog,150,2013-11-30 02:06:00
7:52 PM,-7.1,-9.0,91,30.85,0.2,Calm,Calm,-,N/A,Fog,Light Freezing Fog,0,2013-11-30 02:52:00
8:52 PM,-8.0,-11.9,83,30.82,0.2,Calm,Calm,-,N/A,Fog,Light Freezing Fog,0,2013-11-30 03:52:00
9:52 PM,-7.1,-9.0,91,30.80,0.2,Calm,Calm,-,N/A,Fog,Light Freezing Fog,0,2013-11-30 04:52:00
10:52 PM,-8.0,-11.0,86,30.81,0.2,Calm,Calm,-,N/A,Fog,Light Freezing Fog,0,2013-11-30 05:52:00
11:52 PM,-9.0,-13.0,83,30.78,0.2,Calm,Calm,-,N/A,Fog,Light Freezing Fog,0,2013-11-30 06:52:00